TimeEDT,TemperatureF,Dew PointF,Humidity,Sea Level PressureIn,VisibilityMPH,Wind Direction,Wind SpeedMPH,Gust SpeedMPH,PrecipitationIn,Events,Conditions,WindDirDegrees,DateUTC
12:25 AM,57.2,57.2,100,29.99,2.0,Calm,Calm,-,N/A,,Partly Cloudy,0,2013-07-29 04:25:00
12:36 AM,57.2,57.2,100,29.99,1.5,Calm,Calm,-,N/A,,Scattered Clouds,0,2013-07-29 04:36:00
12:51 AM,57.0,55.9,96,29.98,1.8,NW,3.5,-,N/A,,Partly Cloudy,310,2013-07-29 04:51:00
12:59 AM,57.2,57.2,100,29.99,2.5,Calm,Calm,-,N/A,,Mostly Cloudy,0,2013-07-29 04:59:00
1:08 AM,57.2,57.2,100,29.99,3.0,Calm,Calm,-,N/A,,Mostly Cloudy,0,2013-07-29 05:08:00
1:22 AM,57.2,57.2,100,29.98,4.0,Calm,Calm,-,N/A,,Mostly Cloudy,0,2013-07-29 05:22:00
1:32 AM,57.2,57.2,100,29.99,4.0,Calm,Calm,-,N/A,,Mostly Cloudy,0,2013-07-29 05:32:00
1:51 AM,59.0,57.9,96,29.98,4.0,Calm,Calm,-,N/A,,Overcast,0,2013-07-29 05:51:00
2:01 AM,60.8,57.2,88,29.99,6.0,Calm,Calm,-,N/A,,Overcast,0,2013-07-29 06:01:00
2:09 AM,60.8,57.2,88,29.99,9.0,Variable,3.5,-,0.00,Rain,Light Rain,0,2013-07-29 06:09:00
2:51 AM,57.9,55.9,93,30.01,10.0,WSW,8.1,-,0.01,,Overcast,250,2013-07-29 06:51:00
3:00 AM,57.2,55.4,94,30.02,9.0,WSW,6.9,-,N/A,,Overcast,240,2013-07-29 07:00:00
3:13 AM,57.2,55.4,94,30.01,9.0,SW,4.6,-,N/A,,Overcast,230,2013-07-29 07:13:00
3:20 AM,57.2,55.4,94,30.01,10.0,SW,3.5,-,N/A,,Overcast,230,2013-07-29 07:20:00
3:51 AM,55.9,55.0,97,30.00,4.0,Calm,Calm,-,N/A,,Mostly Cloudy,0,2013-07-29 07:51:00
4:32 AM,55.4,55.4,100,30.02,3.0,Calm,Calm,-,N/A,,Mostly Cloudy,0,2013-07-29 08:32:00
4:43 AM,55.4,55.4,100,30.02,1.5,Calm,Calm,-,N/A,,Scattered Clouds,0,2013-07-29 08:43:00
4:51 AM,54.0,54.0,100,30.01,0.5,Calm,Calm,-,N/A,Fog,Fog,0,2013-07-29 08:51:00
5:02 AM,53.6,53.6,100,30.02,1.0,Calm,Calm,-,N/A,,Clear,0,2013-07-29 09:02:00
5:05 AM,53.6,53.6,100,30.02,0.5,Calm,Calm,-,N/A,Fog,Fog,0,2013-07-29 09:05:00
5:13 AM,53.6,53.6,100,30.02,0.2,Calm,Calm,-,N/A,Fog,Fog,0,2013-07-29 09:13:00
5:51 AM,51.1,51.1,100,30.01,0.2,Calm,Calm,-,N/A,Fog,Fog,0,2013-07-29 09:51:00
6:51 AM,51.1,51.1,100,30.03,0.5,Calm,Calm,-,N/A,Fog,Fog,0,2013-07-29 10:51:00
7:10 AM,53.6,53.6,100,30.03,1.5,Calm,Calm,-,N/A,,Mostly Cloudy,0,2013-07-29 11:10:00
7:17 AM,55.4,55.4,100,30.03,2.5,Calm,Calm,-,N/A,,Scattered Clouds,0,2013-07-29 11:17:00
7:24 AM,55.4,55.4,100,30.03,5.0,Calm,Calm,-,N/A,,Partly Cloudy,0,2013-07-29 11:24:00
7:51 AM,57.0,57.0,100,30.04,9.0,SW,3.5,-,N/A,,Clear,220,2013-07-29 11:51:00
8:46 AM,60.8,57.2,88,30.04,10.0,SW,4.6,-,N/A,,Partly Cloudy,230,2013-07-29 12:46:00
8:51 AM,61.0,57.0,87,30.04,10.0,Calm,Calm,-,N/A,,Partly Cloudy,0,2013-07-29 12:51:00
9:51 AM,64.0,55.9,75,30.04,10.0,South,4.6,-,N/A,,Clear,190,2013-07-29 13:51:00
10:51 AM,64.0,55.0,73,30.04,10.0,WSW,5.8,-,N/A,,Scattered Clouds,250,2013-07-29 14:51:00
11:51 AM,69.1,52.0,54,30.03,10.0,SSW,11.5,-,N/A,,Partly Cloudy,210,2013-07-29 15:51:00
12:51 PM,68.0,52.0,56,30.03,10.0,WSW,6.9,-,N/A,,Scattered Clouds,250,2013-07-29 16:51:00
1:51 PM,71.1,52.0,51,30.02,10.0,WSW,11.5,20.7,N/A,,Scattered Clouds,250,2013-07-29 17:51:00
2:51 PM,64.9,52.0,63,30.04,10.0,Variable,3.5,-,N/A,,Overcast,0,2013-07-29 18:51:00
3:51 PM,66.0,53.1,63,30.04,10.0,SW,9.2,-,N/A,,Overcast,230,2013-07-29 19:51:00
4:51 PM,69.1,53.1,57,30.04,10.0,SW,13.8,19.6,N/A,,Scattered Clouds,220,2013-07-29 20:51:00
5:51 PM,66.9,52.0,59,30.05,10.0,SW,12.7,18.4,N/A,,Mostly Cloudy,230,2013-07-29 21:51:00
6:51 PM,64.9,53.1,65,30.06,10.0,Variable,5.8,-,N/A,,Partly Cloudy,0,2013-07-29 22:51:00
7:51 PM,63.0,48.0,58,30.07,10.0,Variable,6.9,-,N/A,,Clear,0,2013-07-29 23:51:00
8:51 PM,60.1,48.0,64,30.09,10.0,West,4.6,-,N/A,,Mostly Cloudy,270,2013-07-30 00:51:00
9:51 PM,57.9,50.0,75,30.11,10.0,Calm,Calm,-,N/A,,Overcast,0,2013-07-30 01:51:00
10:51 PM,55.9,52.0,87,30.11,10.0,Variable,3.5,-,N/A,,Overcast,0,2013-07-30 02:51:00
11:51 PM,57.0,53.1,87,30.10,9.0,Calm,Calm,-,0.00,Rain,Light Rain,0,2013-07-30 03:51:00